Volver al catálogo

STARLINK-1209

ActivoComunicacionesVLEO
NORAD 45206·PAYLOAD·🇺🇸 United States

Lanzado Feb 17, 2020 desde Cape Canaveral Space Force Station

Loading…

Próximos Pases (próximas 24 horas)

TLE

ActualizadoSource: CelesTrak SupGP

Época: Sep 14, 2026, 20:24 UTC

1 45206C 20012AE  26257.85048611  .00080261  00000+0  33338-3 0  2573
2 45206  53.0268 120.7431 0004582 131.9150 188.2414 15.84984944    15

Sigue STARLINK-1209 en tiempo real con AllMySat

Download on the App Store